Other Public Products
Issued by NWS Grand Forks, ND

Home | Current Version | Previous Version | Text Only | Print | Product List | Glossary Off
Versions: 1 2 3 4 5 6 7 8 9 10 11 12 13 14 15 16 17 18 19 20 21 22 23 24 25 26 27 28 29 30 31 32 33 34 35 36 37 38 39 40 41 42 43 44 45 46 47 48 49 50

000
FPUS83 KFGF 242331
OPUFGF
PRAIRIE TO PINES WEATHER ROUNDUP
NATIONAL WEATHER SERVICE EASTERN NORTH DAKOTA/GRAND FORKS ND
600 PM CDT MON JUL 24 2017

 **SATELLITE DATA USED TO AUGMENT SKY COVER AT AUTOMATED STATIONS**
 *****  WEATHER ACROSS EASTERN NORTH DAKOTA  *****

CITY           SKY/WX    TMP DP  RH WIND       PRES   REMARKS
GRAND FORKS    PTSUNNY   80  65  59 S18G26    29.86F
GRAND FORKS AF FAIR      79  64  59 S22       29.87S
GRAND CITY NWS NOT AVBL
BUXTON           N/A     77  69  76 SE15        N/A
DEVILS LAKE    FAIR      81  66  60 S20G28    29.83S
FARGO          FAIR      79  64  60 SE13G22   29.90S
WAHPETON ARPT  FAIR      72  61  68 E12G21    29.88F
$$

 *****  WEATHER ACROSS CENTRAL AND WESTERN NORTH DAKOTA  *****

CITY           SKY/WX    TMP DP  RH WIND       PRES   REMARKS
JAMESTOWN      FAIR      82  63  52 S20G26    29.86F
BISMARCK       FAIR      88  66  48 SE23      29.78F HX  90
MINOT          FAIR      96  57  27 S14       29.72S HX  95
MINOT AFB      FAIR      94  58  29 S15       29.70S HX  93
GARRISON         N/A     92  62  36 S16G25    29.74F HX  92
WILLISTON      FAIR      92  55  28 N16       29.78R HX  90
DICKINSON      FAIR      97  56  25 S14       29.75F HX  95
HETTINGER      FAIR      96  52  22 S9        29.81F HX  93
$$

 *****  OTHER OBSERVATIONS NORTHEAST NORTH DAKOTA  *****

CITY           SKY/WX    TMP DP  RH WIND       PRES   REMARKS
WALHALLA       NOT AVBL
LANGDON        FAIR      79  70  73 S18G25    29.84S
CAVALIER       FAIR      79  66  65 S16G25    29.82S
GRAFTON        FAIR      79  63  57 S23       29.86R
CANDO          NOT AVBL
FORT TOTTEN    NOT AVBL
ROLLA            N/A     79  66  65 S16G26    29.79F
RUGBY          NOT AVBL
 ***** THE ABOVE OBSERVATIONS ARE NON NWS ARE NOT QUALITY
        CONTROLLED AND MAY MIS-REPORT RAIN FOR SNOW...
$$

 *****  OTHER OBSERVATIONS SOUTHEAST NORTH DAKOTA *****

CITY           SKY/WX    TMP DP  RH WIND       PRES   REMARKS
COOPERSTOWN    FAIR      79  66  65 S18G25    29.88F
VALLEY CITY    FAIR      79  66  65 S12G23    29.89F
OAKES          NOT AVBL
GWINNER        CLEAR     75  64  69 S7G14     29.89R
SHEYENNE NWR     N/A     78  65  64 SE16      29.95S
BUFFALO          N/A     77  59  54 NE12G23     N/A
WYNDMERE       NOT AVBL
 ***** THE ABOVE OBSERVATIONS ARE NON NWS ARE NOT QUALITY
       CONTROLLED AND MAY MIS-REPORT RAIN FOR SNOW...
$$

  *****  WEATHER ACROSS NORTHERN MINNESOTA  *****

CITY           SKY/WX    TMP DP  RH WIND       PRES   REMARKS
FLAG ISLAND    FAIR      75  64  69 S10       29.90S
WARROAD        FAIR      81  66  61 S13       29.91S
ROSEAU         FAIR      81  66  61 S20       29.90S
HALLOCK        FAIR      79  64  61 S21G28    29.85R
THF RVR FALLS  FAIR      77  62  59 S14       29.92F
HALSTAD        NOT AVBL
FOSSTON        FAIR      75  63  64 SE10      29.95F
BAUDETTE       FAIR      79  58  48 S14       29.93F
WASKISH        PTSUNNY   77  59  53 S8        29.97S
CROOKSTON      FAIR      79  63  57 S16       29.90F
$$
  *****  WEATHER ACROSS CENTRAL AND WEST MINNESOTA  *****

CITY           SKY/WX    TMP DP  RH WIND       PRES   REMARKS
BEMIDJI        FAIR      74  58  57 SE10      29.99R
PARK RAPIDS    FAIR      76  59  55 S14       30.00R
WADENA         FAIR      73  61  64 SE9       30.00S
DETROIT LAKES  FAIR      73  61  64 S14       29.98S
MOORHEAD       FAIR      75  63  64 SE13G21   29.91F
FERGUS FALLS   FAIR      73  63  68 SE14      29.93F
ELBOW LAKE     FAIR      72  63  74 E9        29.96F
MORRIS MN      DRIZZLE   75  63  64 SE12      29.96F
STAPLES        FAIR      72  59  64 SE6       30.01F
WHEATON        LGT RAIN  70  64  83 SE15G21   29.91F
$$
  *****  WEATHER ELSEWHERE ACROSS MINNESOTA  *****

CITY           SKY/WX    TMP DP  RH WIND       PRES   REMARKS
DULUTH         FAIR      71  56  58 E9        30.05S
INTRNTL FALLS  FAIR      77  54  44 S8        29.96F
ELY            FAIR      75  48  38 S8        30.04S
CLOQUET        FAIR      72  55  56 E6        30.05R
BRAINERD       FAIR      74  61  63 S7        30.02S
HIBBING        FAIR      74  55  51 SE7       30.03S
ALEXANDRIA     FAIR      74  61  63 S13       30.02R
SAINT CLOUD    FAIR      77  61  57 SE12      30.01S
MINNEAPOLIS    PTSUNNY   77  59  53 S9        30.03S
$$

  *****  WEATHER ACROSS SOUTH DAKOTA  *****

CITY           SKY/WX    TMP DP  RH WIND       PRES   REMARKS
SIOUX FALLS    FAIR      83  65  54 SE21      29.92F
BROOKINGS      FAIR      80  64  58 SE14      29.95F
WATERTOWN      FAIR      78  65  63 SE21G28   29.89F
HURON          FAIR      83  67  58 SE20G29   29.82F
SISSETON         N/A     72  67  84 E15       29.87F
ABERDEEN       CLOUDY    73  70  90 E10       29.87F
MITCHELL       FAIR      88  67  49 SE17G25   29.86S HX  91
PIERRE         FAIR      95  65  37 SE29G37   29.69F HX  97
MOBRIDGE       FAIR      85  69  58 SE22G28   29.78F
RAPID CITY     FAIR      97  47  18 NE10G16   29.83R HX  93
$$

  *****  SOME WEATHER IN NEARBY STATES *****

CITY           SKY/WX    TMP DP  RH WIND       PRES   REMARKS
GLASGOW MT     FAIR      84  41  21 NW15      29.84F
GREAT FALLS MT FAIR      87  44  22 NE12G17   29.86F
CHEYENNE WY    LGT RAIN  82  39  21 SW17G58   30.14R SQUALL
SCOTTSBLUFF NE FAIR     102  38  11 N6        29.88F HX  96
OMAHA NE       FAIR      86  65  49 SE10      29.96S
DES MOINES IA  FAIR      82  60  47 E10       29.99F
DAVENPORT IA   FAIR      75  62  64 E8        30.08R
CHICAGO IL     FAIR      73  57  57 NE10      30.06R
EAU CLAIRE WI  FAIR      76  56  49 S10G16    30.05S
LA CROSSE WI   FAIR      77  60  55 S7        30.06R
$$

  *****  SOME NATIONAL WEATHER *****

CITY           SKY/WX    TMP DP  RH WIND       PRES   REMARKS
LA GUARDIA NY  CLOUDY    68  60  75 E13       29.87R
RALEIGH NC     FAIR      90  68  48 VRB3      29.90R HX  94
ATLANTA GA     CLOUDY    77  71  82 W5        29.99F
NEW ORLEANS LA CLOUDY    81  75  82 SW3       30.00F
OKLAHOMA CITY  FAIR      91  66  43 S9        29.94F HX  93
ALBUQUERQUE NM PTSUNNY   88  51  28 SW9       30.08F
SALT LAKE CITY PTSUNNY   97  43  15 N7        29.90F HX  93
LOS ANGELES CA PTSUNNY   73  65  75 SW10      29.87F
BOISE ID       FAIR      97  45  16 NW6       29.83F HX  93
SEATTLE WA     FAIR      80  53  39 N7        29.97F
$$

*** WEATHER ACROSS MANITOBA...SASKATCHEWAN AND ONTARIO ***
                ***ONTARIO***

CITY           SKY/WX    TMP DP  RH WIND       PRES   REMARKS
GERALDTON      MOSUNNY   79  55  44 SE7       29.99S
THUNDER BAY    MOSUNNY   77  54  44 S14G20    30.02R
SIOUX LOOKOUT  PTSUNNY   75  57  53 SW8       29.95F
TORONTO        CLOUDY    64  57  77 N16       29.88R
BIG TROUT LK   PTSUNNY   79  57  47 SW10      29.82S
PICKLE LAKE    PTSUNNY   81  54  39 SW14      29.92F
DRYDEN         SUNNY     79  54  41 S14G20    29.96S
KENORA         MOSUNNY   77  59  53 S14       29.93S
$$
                *** MANITOBA***

CITY           SKY/WX    TMP DP  RH WIND       PRES   REMARKS
BRANDON        PTSUNNY   84  68  58 S15G22    29.71F
DAUPHIN        SUNNY     82  64  54 W13       29.66S
ISLAND LAKE    TSTM      68  64  88 SE9       29.75R
PILOT MOUND      N/A     77  64  65 S20G26      N/A
THE PAS        MOSUNNY   81  63  54 W20       29.52R
THOMPSON       CLOUDY    72  63  73 VRB5      29.65F
WINNIPEG       PTSUNNY   77  66  69 S18G29    29.79S
LYNN LAKE      LGT RAIN  64  63  94 E12G20    29.61F
CHURCHILL      PTSUNNY   55  46  71 E13       29.83S
GILLAM         CLOUDY    68  64  88 VRB2      29.74S
$$
                ***SASKATCHEWAN***

CITY           SKY/WX    TMP DP  RH WIND       PRES   REMARKS
ESTEVAN        PTSUNNY   81  50  34 NW17      29.79S
KINDERSLEY     PTSUNNY   68  43  40 W28G43    29.80R
LLOYDMINSTER   PTSUNNY   55  54  94 NW17G25   29.65R
PRINCE ALBERT  MOSUNNY   68  48  49 W18G29    29.66F
REGINA         MOSUNNY   77  41  27 W20G28    29.81S
YORKTON        SUNNY     77  54  44 W14G20    29.74R


USA.gov is the U.S. government's official web portal to all federal, state and local government web resources and services.